Weather History for Huntsville Madison, AL

Change the Weather History Date:

Tuesday, August 13, 2013

  Actual Average (KHSV) Record (KHSV)
Temperature  
Mean Temperature 76 °F 81 °F  
Max Temperature 82 °F 91 °F 104 °F (2007)
Min Temperature 71 °F 70 °F 51 °F (2004)
Degree Days  
Heating Degree Days 0 0  
Month to date heating degree days 0  
Since 1 June heating degree days 1  
Since 1 July heating degree days 0  
Cooling Degree Days 12 16  
Month to date cooling degree days 208  
Year to date cooling degree days 1333  
Since 1 June cooling degree days 1070  
Growing Degree Days 26 (Base 50)    
Moisture  
Dew Point 68 °F    
Average Humidity 77    
Maximum Humidity 88    
Minimum Humidity 51    
Precipitation  
Precipitation 0.00 in 0.11 in 2.50 in (1993)
Month to date precipitation 1.58  
Year to date precipitation 34.29  
Snow  
Snow 0.00 in - - ()
Month to date snowfall  
Since 1 June snowfall  
Since 1 July snowfall  
Snow Depth -    
Sea Level Pressure  
Sea Level Pressure 29.98 in    
Wind  
Wind Speed 4 mph (NW)    
Max Wind Speed 10 mph    
Max Gust Speed -    
Visibility 10 miles    
Events      
T = Trace of Precipitation, MM = Missing Value Source: NWS Daily Summary

Daily Weather History Graph

Daily Weather History Graph

Search for Another Location

Airport:

Trip Planner

Search our weather history database for the weather conditions in past years. The results will help you decide how hot, cold, wet, or windy it might be!

Date:

Astronomy

Aug. 13, 2013 Rise Set
Actual Time 6:05 AM CDT 7:36 PM CDT
Civil Twilight 5:38 AM CDT 8:03 PM CDT
Nautical Twilight 5:05 AM CDT 8:35 PM CDT
Astronomical Twilight 4:32 AM CDT 9:09 PM CDT
Moon 12:40 PM CDT (8/13) 11:30 PM CDT (8/13)
Length of Visible Light 14h 24m
Length of Day
13h 31m
Waxing Crescent, 42% of the Moon is Illuminated
Aug 13
Waxing Crescent
Aug 14
First Quarter
Aug 20
Full
Aug 28
Last Quarter
Sep 5
New

Hourly Weather History & Observations

Time (CDT) Temp. Heat Index Dew Point Humidity Pressure Visibility Wind Dir Wind Speed Gust Speed Precip Events Conditions
12:15 AM 73.4 °F - 69.8 °F 88% 30.00 in 10.0 mi Calm Calm - N/A   Clear
12:35 AM 73.4 °F - 69.8 °F 88% 30.00 in 10.0 mi SW 5.8 mph - N/A   Scattered Clouds
12:55 AM 73.4 °F - 69.8 °F 88% 29.99 in 10.0 mi SSW 5.8 mph - N/A   Scattered Clouds
1:15 AM 73.4 °F - 69.8 °F 88% 29.98 in 10.0 mi WSW 5.8 mph - N/A   Clear
1:35 AM 73.4 °F - 69.8 °F 88% 29.96 in 10.0 mi West 4.6 mph - N/A   Clear
1:55 AM 73.4 °F - 69.8 °F 88% 29.96 in 10.0 mi West 3.5 mph - N/A   Clear
2:15 AM 73.4 °F - 69.8 °F 88% 29.94 in 10.0 mi Calm Calm - N/A   Clear
2:35 AM 73.4 °F - 69.8 °F 88% 29.93 in 10.0 mi Calm Calm - N/A   Clear
2:55 AM 71.6 °F - 68.0 °F 88% 29.94 in 10.0 mi West 3.5 mph - N/A   Scattered Clouds
3:15 AM 71.6 °F - 68.0 °F 88% 29.94 in 10.0 mi Calm Calm - N/A   Mostly Cloudy
3:35 AM 71.6 °F - 68.0 °F 88% 29.96 in 10.0 mi SSW 3.5 mph - N/A   Mostly Cloudy
3:55 AM 71.6 °F - 68.0 °F 88% 29.97 in 10.0 mi Calm Calm - N/A   Overcast
4:15 AM 71.6 °F - 68.0 °F 88% 29.97 in 10.0 mi Calm Calm - N/A   Overcast
4:35 AM 73.4 °F - 68.0 °F 83% 29.98 in 10.0 mi SSW 4.6 mph - N/A   Overcast
4:55 AM 71.6 °F - 68.0 °F 88% 29.98 in 10.0 mi SSW 5.8 mph - N/A   Overcast
5:15 AM 71.6 °F - 68.0 °F 88% 29.98 in 10.0 mi Calm Calm - N/A   Overcast
5:35 AM 71.6 °F - 68.0 °F 88% 29.98 in 10.0 mi Calm Calm - N/A   Overcast
5:55 AM 71.6 °F - 68.0 °F 88% 29.99 in 10.0 mi Calm Calm - N/A   Overcast
6:15 AM 71.6 °F - 68.0 °F 88% 30.00 in 10.0 mi Calm Calm - N/A   Overcast
6:35 AM 71.6 °F - 68.0 °F 88% 30.00 in 10.0 mi West 3.5 mph - N/A   Overcast
6:55 AM 71.6 °F - 68.0 °F 88% 30.01 in 10.0 mi West 3.5 mph - N/A   Overcast
7:15 AM 71.6 °F - 66.2 °F 83% 30.00 in 10.0 mi West 3.5 mph - N/A   Scattered Clouds
7:35 AM 73.4 °F - 68.0 °F 83% 30.00 in 10.0 mi West 3.5 mph - N/A   Clear
7:55 AM 73.4 °F - 68.0 °F 83% 30.01 in 10.0 mi West 3.5 mph - N/A   Scattered Clouds
8:15 AM 73.4 °F - 68.0 °F 83% 30.01 in 10.0 mi WNW 10.4 mph - N/A   Scattered Clouds
8:35 AM 73.4 °F - 68.0 °F 83% 30.01 in 10.0 mi WNW 9.2 mph - N/A   Scattered Clouds
8:55 AM 73.4 °F - 66.2 °F 78% 30.01 in 10.0 mi West 6.9 mph - N/A   Mostly Cloudy
9:15 AM 77.0 °F - 68.0 °F 74% 30.01 in 10.0 mi WNW 6.9 mph - N/A   Mostly Cloudy
9:35 AM 77.0 °F - 66.2 °F 69% 30.01 in 10.0 mi NW 5.8 mph - N/A   Mostly Cloudy
9:55 AM 77.0 °F - 66.2 °F 69% 30.02 in 10.0 mi NW 4.6 mph - N/A   Overcast
10:15 AM 77.0 °F - 68.0 °F 74% 30.02 in 10.0 mi NW 6.9 mph - N/A   Overcast
10:35 AM 77.0 °F - 66.2 °F 69% 30.02 in 10.0 mi WNW 8.1 mph - N/A   Overcast
10:55 AM 77.0 °F - 68.0 °F 74% 30.02 in 10.0 mi NNW 8.1 mph - N/A   Overcast
11:15 AM 77.0 °F - 68.0 °F 74% 30.01 in 10.0 mi NW 5.8 mph - N/A   Overcast
11:35 AM 77.0 °F - 66.2 °F 69% 30.01 in 10.0 mi WNW 6.9 mph - N/A   Mostly Cloudy
11:55 AM 78.8 °F - 68.0 °F 69% 30.01 in 10.0 mi NNW 5.8 mph - N/A   Mostly Cloudy
12:15 PM 78.8 °F - 66.2 °F 65% 30.01 in 10.0 mi NNW 6.9 mph - N/A   Overcast
12:35 PM 78.8 °F - 66.2 °F 65% 30.00 in 10.0 mi NNW 5.8 mph - N/A   Mostly Cloudy
12:55 PM 78.8 °F - 68.0 °F 69% 30.01 in 10.0 mi NNW 8.1 mph - N/A   Mostly Cloudy
1:15 PM 77.0 °F - 68.0 °F 74% 30.00 in 10.0 mi North 6.9 mph - N/A   Mostly Cloudy
1:35 PM 78.8 °F - 68.0 °F 69% 30.00 in 10.0 mi NNW 8.1 mph - N/A   Mostly Cloudy
1:55 PM 78.8 °F - 66.2 °F 65% 29.99 in 10.0 mi Calm Calm - N/A   Mostly Cloudy
2:15 PM 80.6 °F 82.7 °F 66.2 °F 61% 29.98 in 10.0 mi North 4.6 mph - N/A   Mostly Cloudy
2:35 PM 82.4 °F 83.9 °F 64.4 °F 54% 29.97 in 10.0 mi North 4.6 mph - N/A   Mostly Cloudy
2:55 PM 82.4 °F 83.9 °F 64.4 °F 54% 29.96 in 10.0 mi NW 6.9 mph - N/A   Scattered Clouds
3:15 PM 82.4 °F 84.6 °F 66.2 °F 58% 29.95 in 10.0 mi NW 5.8 mph - N/A   Scattered Clouds
3:35 PM 82.4 °F 83.9 °F 64.4 °F 54% 29.94 in 10.0 mi NNW 5.8 mph - N/A   Scattered Clouds
3:55 PM 82.4 °F 83.4 °F 62.6 °F 51% 29.93 in 10.0 mi WNW 3.5 mph - N/A   Clear
4:15 PM 82.4 °F 83.9 °F 64.4 °F 54% 29.93 in 10.0 mi NNW 5.8 mph - N/A   Scattered Clouds
4:35 PM 80.6 °F 82.3 °F 64.4 °F 58% 29.93 in 10.0 mi NW 3.5 mph - N/A   Clear
4:55 PM 80.6 °F 82.3 °F 64.4 °F 58% 29.93 in 10.0 mi NW 4.6 mph - N/A   Scattered Clouds
5:15 PM 82.4 °F 83.9 °F 64.4 °F 54% 29.93 in 10.0 mi NW 5.8 mph - N/A   Clear
5:35 PM 80.6 °F 82.3 °F 64.4 °F 58% 29.94 in 10.0 mi NNW 4.6 mph - N/A   Scattered Clouds
5:55 PM 80.6 °F 82.3 °F 64.4 °F 58% 29.93 in 10.0 mi NNW 6.9 mph - N/A   Scattered Clouds
6:55 PM 78.8 °F - 68.0 °F 69% 29.93 in 10.0 mi Calm Calm - N/A   Clear
7:15 PM 77.0 °F - 69.8 °F 78% 29.93 in 10.0 mi Calm Calm - N/A   Clear
7:35 PM 77.0 °F - 69.8 °F 78% 29.93 in 10.0 mi Calm Calm - N/A   Clear
7:55 PM 77.0 °F - 69.8 °F 78% 29.94 in 10.0 mi Calm Calm - N/A   Clear
8:15 PM 75.2 °F - 69.8 °F 83% 29.95 in 10.0 mi Calm Calm - N/A   Clear
8:35 PM 75.2 °F - 69.8 °F 83% 29.96 in 10.0 mi Calm Calm - N/A   Clear
8:55 PM 73.4 °F - 69.8 °F 88% 29.96 in 10.0 mi Calm Calm - N/A   Clear
9:15 PM 75.2 °F - 69.8 °F 83% 29.98 in 10.0 mi Calm Calm - N/A   Mostly Cloudy
9:35 PM 73.4 °F - 69.8 °F 88% 29.98 in 10.0 mi Calm Calm - N/A   Scattered Clouds
9:55 PM 73.4 °F - 69.8 °F 88% 29.98 in 10.0 mi Calm Calm - N/A   Clear
10:15 PM 73.4 °F - 69.8 °F 88% 29.98 in 7.0 mi Calm Calm - N/A   Clear
10:35 PM 73.4 °F - 69.8 °F 88% 29.98 in 10.0 mi North 3.5 mph - N/A   Scattered Clouds
10:55 PM 73.4 °F - 68.0 °F 83% 29.97 in 10.0 mi North 5.8 mph - N/A   Mostly Cloudy
11:15 PM 71.6 °F - 66.2 °F 83% 29.97 in 10.0 mi North 5.8 mph - N/A   Scattered Clouds
11:35 PM 71.6 °F - 66.2 °F 83% 29.98 in 10.0 mi North 3.5 mph - N/A   Clear
11:55 PM 71.6 °F - 66.2 °F 83% 29.98 in 10.0 mi North 5.8 mph - N/A   Scattered Clouds